Probability
5 11 18 16 8 4 1 0 0 0 0 0 0 0 0 0 0 0 0 0 0 0 0 0 0 0 0 0 0 0 0 0 0 0 0 0 0 0 0 0 0 0 0
12 17 21 18 9 4 2 1 0 0 0 0 0 0 0 0 0 0 0 0 0 0 0 0 0 0 0 0 0 0 0 0 0 0 0 0 0 0 0 0 0 0 0
20 21 23 19 10 4 2 1 0 0 0 0 0 0 0 0 0 0 0 0 0 0 0 0 0 0 0 0 0 0 0 0 0 0 0 0 0 0 0 0 0 0 0
25 23 22 19 11 3 1 0 0 0 0 0 0 0 0 0 0 0 0 0 0 0 0 0 0 0 0 0 0 0 0 0 0 0 0 0 0 0 0 0 0 0 0
29 24 22 19 10 3 1 0 0 0 0 0 0 0 0 0 0 0 0 0 0 0 0 0 0 0 0 0 0 0 0 0 0 0 0 0 0 0 0 0 0 0 0
30 25 23 19 10 3 1 0 0 0 0 0 0 0 0 0 0 0 0 0 0 0 0 0 0 0 0 0 0 0 0 0 0 0 0 0 0 0 0 0 0 0 0
29 26 24 20 12 4 1 0 0 0 0 0 0 0 0 0 0 0 0 0 0 0 0 0 0 0 0 0 0 0 0 0 0 0 0 0 0 0 0 0 0 0 0
28 26 23 18 11 4 1 0 0 0 0 0 0 0 0 0 0 0 0 0 0 0 0 0 0 0 0 0 0 0 0 0 0 0 0 0 0 0 0 0 0 0 0
25 24 19 12 6 3 1 0 0 0 0 0 0 0 0 0 0 0 0 0 0 0 0 0 0 0 0 0 0 0 0 0 0 0 0 0 0 0 0 0 0 0 0
21 19 13 6 3 2 1 0 0 0 0 0 0 0 0 0 0 0 0 0 0 0 0 0 0 0 0 0 0 0 0 0 0 0 0 0 0 0 0 0 0 0 0
15 12 8 4 3 1 0 0 0 0 0 0 0 0 0 0 0 0 0 0 0 0 0 0 0 0 0 0 0 0 0 0 0 0 0 0 0 0 0 0 0 0 0
8 7 5 3 2 1 0 0 0 0 0 0 0 0 0 0 0 0 0 0 0 0 0 0 0 0 0 0 0 0 0 0 0 0 0 0 0 0 0 0 0 0 0
6 5 3 3 2 1 0 0 0 0 0 0 0 0 0 0 0 0 0 0 0 0 0 0 0 0 0 0 0 0 0 0 0 0 0 0 0 0 0 0 0 0 0
6 4 2 2 2 1 0 0 0 0 0 0 0 0 0 0 0 0 0 0 0 0 0 0 0 0 0 0 0 0 0 0 0 0 0 0 0 0 0 0 0 0 0
5 4 2 3 2 1 1 1 0 0 0 0 0 0 0 0 0 0 0 0 0 0 0 0 0 0 0 0 0 0 0 0 0 0 0 0 0 0 0 0 0 0 0
6 4 3 4 3 2 2 1 0 0 0 0 0 0 0 0 0 0 0 0 0 0 0 0 0 0 0 0 0 0 0 0 0 0 0 0 0 0 0 0 0 0 0
9 6 4 5 5 4 3 3 1 0 0 0 0 0 0 0 0 0 0 0 0 0 0 0 0 0 0 0 0 0 0 0 0 0 0 0 0 0 0 0 0 0 0
10 7 6 7 7 5 5 4 2 0 0 0 0 0 0 0 0 0 0 0 0 0 0 0 0 0 0 0 0 0 0 0 0 0 0 0 0 0 0 0 0 0 0
8 8 8 8 7 6 5 5 3 1 0 0 0 0 0 0 0 0 0 0 0 0 0 0 0 0 0 0 0 0 0 0 0 0 0 0 0 0 0 0 0 0 0
6 7 8 8 7 7 6 6 5 2 1 0 0 0 0 0 0 0 0 0 0 0 0 0 0 0 0 0 0 0 0 0 0 0 0 0 0 0 0 0 0 0 0
3 4 5 6 8 8 9 9 8 5 3 2 1 0 0 0 0 0 0 0 0 0 0 0 0 0 0 0 0 0 0 0 0 0 0 0 0 0 0 0 0 0 0
1 2 3 5 7 10 11 11 10 7 6 4 3 1 1 0 0 0 0 0 0 0 0 0 0 0 0 0 0 0 0 0 0 0 0 0 0 0 0 0 0 0 0
2 2 2 4 7 10 10 9 9 7 7 6 4 3 3 1 1 0 0 0 0 0 0 0 0 0 0 0 0 0 0 0 0 0 0 0 0 0 0 0 0 0 0
1 1 1 2 4 7 8 8 7 7 6 6 5 5 4 3 2 1 1 0 0 0 0 0 0 0 0 0 0 0 0 0 0 0 0 0 0 0 0 0 0 0 0
0 0 0 1 1 3 5 5 6 6 6 6 5 4 4 3 3 3 2 1 0 0 0 0 0 0 0 0 0 0 0 0 0 0 0 0 0 0 0 0 0 0 0
0 0 0 0 0 1 2 3 5 6 6 6 4 3 3 3 3 3 3 2 1 0 0 0 0 0 0 0 0 0 0 0 0 0 0 0 0 0 0 0 0 0 0
Wind_Speed
7 9 17 18 17 15 14 14 13 13 13 13 15 16 17 17 17 17 17 16 16 17 17 17 17 17 16 16 16 15 15 15 15 15 14 14 14 14 13 13 11 7 14
10 11 17 17 17 16 15 14 14 13 13 13 15 16 17 17 17 17 17 17 17 16 16 16 16 16 15 14 14 13 13 13 13 12 11 9 10 12 13 12 11 8 12
12 11 15 17 16 16 15 15 14 13 13 14 14 16 16 17 17 17 17 16 16 16 16 15 15 14 13 13 12 12 12 11 11 11 10 5 6 12 12 12 11 11 11
12 10 12 16 16 16 16 15 14 14 14 14 14 15 16 16 16 16 16 16 16 15 15 15 14 13 12 12 12 11 11 10 10 9 5 4 4 10 12 11 11 11 11
10 9 12 17 16 16 16 15 15 14 14 14 15 15 15 16 16 16 15 15 15 14 14 13 12 12 11 10 10 11 10 10 10 7 4 4 4 9 11 11 11 10 10
9 9 12 16 16 16 15 15 15 15 14 14 15 15 15 15 15 15 14 14 13 13 13 12 11 11 10 10 10 10 10 9 7 4 4 3 3 7 9 9 9 9 9
9 8 11 16 16 16 16 15 15 15 15 14 15 15 15 15 14 14 13 13 12 12 11 11 10 10 9 9 9 9 8 7 4 3 2 2 3 6 8 8 8 8 8
9 9 10 15 14 15 15 14 14 14 14 14 14 14 14 14 14 13 12 12 11 11 10 9 9 8 8 8 7 7 6 4 4 2 1 1 2 4 6 6 6 7 7
8 8 7 8 9 12 13 13 13 13 13 13 13 13 12 12 12 12 11 10 10 9 8 8 7 6 6 6 5 5 4 4 2 1 1 1 1 2 3 4 4 5 5
7 8 7 7 6 6 7 11 11 11 11 11 11 10 10 9 9 10 8 8 8 7 6 5 5 4 5 4 4 3 3 3 1 1 1 2 3 1 1 1 2 2 3
8 7 7 7 6 6 6 8 9 10 10 10 9 10 8 4 4 4 5 5 5 5 4 3 3 3 4 4 4 3 2 1 1 1 2 4 5 4 2 1 1 0 0
9 8 7 8 7 6 5 5 4 4 5 5 5 5 4 3 3 3 4 4 3 3 2 2 2 3 3 2 2 3 1 1 1 2 3 6 7 6 5 4 3 3 2
9 8 8 8 8 7 5 5 3 3 3 4 5 5 4 3 2 2 1 1 1 1 1 2 2 2 1 1 1 1 1 1 1 2 3 7 8 8 7 6 6 6 5
8 9 9 9 8 7 6 5 4 4 3 3 4 5 4 2 2 2 1 1 1 1 0 0 0 1 1 2 2 2 2 2 2 2 3 7 8 9 9 8 8 7 7
9 9 9 9 9 8 6 5 5 4 4 4 4 4 4 3 3 2 2 1 1 1 1 1 1 1 2 2 2 2 3 3 3 3 3 7 8 9 10 10 10 8 8
11 10 9 10 9 8 6 5 5 5 4 4 4 5 5 4 3 3 2 2 2 2 2 2 1 1 1 2 2 2 3 3 3 3 3 4 7 8 9 10 10 8 7
11 10 9 10 10 10 8 7 5 5 5 5 4 5 5 5 4 4 3 3 2 2 2 1 1 1 1 1 2 3 2 3 3 4 4 3 3 5 7 8 7 6 4
9 10 9 9 10 10 8 7 5 5 5 5 4 4 6 5 5 4 3 3 3 2 2 2 1 1 1 1 2 2 2 3 4 4 3 3 2 2 3 4 3 3 2
10 11 10 8 10 10 8 6 5 4 4 4 4 4 5 5 6 4 4 3 3 2 2 2 1 1 1 2 2 2 2 2 3 3 3 3 2 1 1 1 2 3 3
8 8 9 8 8 7 6 5 4 3 3 3 4 4 5 5 6 5 3 3 3 2 2 1 1 1 1 1 2 2 2 2 2 2 3 2 2 2 1 2 2 4 6
8 8 8 8 7 6 5 5 5 4 3 3 3 4 4 5 5 5 3 3 3 3 2 2 1 1 1 0 1 2 2 2 2 3 3 3 4 4 4 4 3 3 3
8 9 9 8 8 8 6 4 3 4 3 3 2 3 3 4 4 4 4 3 3 3 3 2 2 1 0 1 1 1 3 3 2 3 3 4 4 4 5 5 5 4 4
8 9 8 9 8 8 7 4 3 3 2 2 3 3 3 4 4 4 4 4 3 3 3 2 2 2 1 0 0 1 1 2 2 2 3 4 4 4 4 4 5 5 4
7 7 8 8 9 9 9 8 8 6 6 6 4 4 4 4 4 4 4 4 4 3 3 2 2 2 2 1 0 1 1 2 1 2 1 2 4 4 4 4 4 5 5
5 5 6 7 8 8 8 9 8 6 5 3 3 5 4 3 4 4 4 4 4 3 3 3 2 2 1 2 1 1 1 1 2 2 3 1 1 2 3 3 3 3 4
3 4 4 5 5 6 7 8 9 9 8 7 6 6 4 3 3 4 4 4 4 3 3 3 2 2 1 1 1 1 1 1 1 2 3 2 1 1 2 2 2 2 3
Wind_Direction
159 156 152 145 140 137 134 128 122 117 116 115 118 121 122 121 120 119 116 113 112 110 107 106 105 101 97 92 88 83 80 77 72 68 65 66 69 70 69 65 61 52 58
146 151 149 145 142 139 135 128 124 120 117 116 117 120 121 120 119 118 116 114 112 111 110 109 106 101 97 94 91 88 85 82 78 72 63 55 63 68 66 65 63 61 59
142 147 146 144 143 141 136 131 128 125 122 119 119 119 120 119 118 116 115 114 112 111 111 109 104 100 97 95 93 92 88 85 81 73 61 42 56 67 65 65 63 60 59
141 143 143 144 144 142 138 134 132 129 126 123 121 119 119 119 117 116 115 113 112 111 110 107 104 100 97 95 94 93 91 88 83 73 54 38 38 65 63 63 63 60 56
136 137 144 144 145 143 142 138 136 133 130 126 124 122 120 119 119 117 115 114 113 112 111 108 105 100 96 94 95 93 92 89 81 69 52 39 32 64 64 62 60 58 56
133 134 144 144 145 145 145 142 139 137 133 130 129 126 124 122 120 118 116 116 116 115 114 111 105 99 95 94 96 94 93 90 78 64 49 32 24 65 68 66 62 59 56
136 136 144 145 147 148 147 145 142 142 138 135 133 131 128 126 124 122 122 121 120 120 118 113 106 99 94 93 96 94 92 92 84 72 51 21 29 64 68 67 64 62 58
140 138 143 147 147 149 149 147 146 146 142 139 137 135 133 132 130 129 128 127 126 124 120 114 107 99 92 90 91 90 91 91 83 65 40 357 27 58 67 67 65 62 59
139 136 136 140 145 148 149 146 147 147 144 142 140 137 135 135 136 136 134 133 130 127 122 116 108 99 90 84 83 80 79 88 93 44 336 307 311 44 66 70 67 66 60
141 139 136 134 134 137 144 145 145 143 142 141 137 131 130 133 136 137 136 136 134 129 123 116 107 93 76 65 61 61 74 80 77 306 299 278 279 292 34 74 70 66 65
152 145 142 139 135 133 140 146 142 142 141 137 133 133 126 121 123 127 135 134 134 134 128 117 99 76 60 45 36 41 63 70 298 279 273 274 274 270 266 258 249 298 58
165 160 153 150 146 142 145 138 135 137 136 131 132 132 125 124 124 126 138 140 138 129 111 97 59 47 50 33 14 29 36 303 273 267 266 274 274 272 267 255 247 245 247
173 168 165 161 155 151 143 142 140 135 133 135 140 140 133 126 120 111 113 114 104 96 59 31 31 29 18 351 338 334 308 291 265 268 273 279 277 275 274 264 254 248 247
178 180 172 166 163 160 153 152 152 152 152 153 155 151 145 145 149 153 156 162 154 135 150 40 344 323 321 314 307 304 300 285 270 266 270 279 281 276 276 275 266 258 255
181 189 180 171 169 167 159 160 164 167 168 165 162 166 164 164 172 175 178 185 195 189 197 216 249 296 308 311 303 290 290 289 283 275 278 283 283 279 278 279 277 271 267
188 193 185 176 173 169 167 166 168 172 169 168 175 181 178 176 179 181 188 196 206 203 204 206 224 261 283 290 296 290 281 283 278 276 270 280 282 279 277 278 280 282 284
187 190 189 183 176 173 174 174 172 174 172 178 185 186 187 186 185 181 185 200 211 198 192 193 219 232 263 270 280 283 277 276 277 277 275 269 278 281 278 276 279 290 305
182 187 189 189 182 178 176 173 172 173 175 183 183 184 190 189 182 174 182 202 197 177 174 183 188 208 248 268 280 287 285 284 284 282 282 280 277 280 293 288 292 307 332
185 186 185 188 188 184 175 169 169 171 180 183 177 180 187 186 180 173 182 192 173 162 169 180 170 181 229 270 277 282 286 286 294 307 305 301 295 287 293 353 38 47 54
186 184 185 189 189 181 172 158 158 167 180 182 184 184 182 181 176 171 172 175 162 156 160 163 170 175 216 266 289 294 290 299 325 335 328 342 1 18 40 54 56 58 63
185 185 186 185 185 177 177 172 174 182 178 181 188 180 180 176 171 169 167 162 158 161 164 161 153 166 234 271 336 323 322 350 25 15 15 25 30 37 53 55 56 51 48
189 190 190 191 186 188 191 179 171 162 154 165 164 159 169 174 174 168 164 161 159 151 143 143 146 154 187 106 127 342 332 341 12 32 31 38 33 38 50 51 53 51 46
196 195 195 194 193 194 188 161 134 113 110 142 162 162 174 174 170 164 160 153 150 149 154 157 157 161 178 175 141 173 226 275 311 352 37 39 37 43 43 47 49 46 45
209 197 192 192 195 197 186 178 176 180 193 196 179 169 166 160 154 153 146 144 145 144 145 146 140 142 147 183 284 262 222 210 259 304 342 38 45 44 38 42 42 42 39
202 190 188 191 194 194 190 186 187 194 199 181 156 155 154 146 142 140 139 139 133 130 132 127 124 123 143 169 186 206 239 237 227 240 271 292 30 43 40 41 44 38 33
189 180 176 183 197 193 192 189 191 193 188 179 177 173 165 153 138 137 130 130 129 132 136 131 124 128 134 147 172 198 211 230 231 237 256 252 241 132 62 44 45 40 37